EW3359 Weather Reports


time (UTC)temp
F
wind
direction
speed
knots
gust
knots
rain 1hr
in
rain 24hr
in
rain mn
in
humidity
%
barometer
mb
20260506203054 51 137 0.0 0.0 0.00 0.17 0.17 90 1010.2
20260506201553 51 137 0.0 0.0 0.00 0.17 0.17 89 1010.2
20260506200052 51 137 0.0 0.0 0.00 0.17 0.17 89 1010.1
20260506194553 52 137 0.0 0.0 0.00 0.17 0.17 88 1009.9
20260506193047 52 137 0.0 0.0 0.00 0.17 0.17 88 1009.5
20260506191546 52 137 0.0 0.0 0.00 0.17 0.17 87 1009.3
20260506190045 52 137 0.0 0.0 0.00 0.17 0.17 87 1009.0
20260506184544 52 137 0.0 0.0 0.00 0.17 0.17 87 1008.7
20260506183042 52 137 0.0 0.0 0.00 0.17 0.17 87 1008.7
20260506181542 52 137 0.0 0.0 0.00 0.17 0.17 86 1008.5
20260506180044 53 137 0.0 0.0 0.00 0.17 0.17 85 1008.3
20260506174541 53 137 0.0 0.0 0.00 0.17 0.17 84 1008.2
20260506173045 53 137 0.0 0.0 0.00 0.17 0.17 84 1008.1
20260506171548 54 137 0.0 0.0 0.00 0.17 0.17 80 1008.0
20260506170040 53 137 0.0 0.0 0.00 0.17 0.17 78 1007.9
20260506164552 52 137 0.0 0.9 0.00 0.17 0.17 85 1007.9
20260506163042 53 152 0.0 1.7 0.00 0.17 0.17 89 1007.9
20260506161539 52 154 0.0 1.7 0.02 0.17 0.17 92 1008.1
20260506160046 52 155 0.0 0.0 0.02 0.20 0.17 93 1008.2
20260506154547 51 155 0.0 4.3 0.03 0.20 0.17 92 1008.1
20260506153036 51 256 0.0 0.0 0.05 0.20 0.17 90 1008.4
20260506151536 51 256 0.0 0.0 0.06 0.19 0.16 89 1008.7
20260506150036 51 256 0.0 0.0 0.06 0.18 0.15 88 1008.5
20260506144533 51 263 0.0 0.0 0.05 0.17 0.14 84 1008.1
20260506143035 52 275 0.0 5.2 0.02 0.15 0.12 79 1007.9
20260506141531 53 24 0.0 8.7 0.00 0.13 0.09 77 1007.2
20260506140030 55 140 0.0 6.1 0.00 0.13 0.09 79 1007.1
20260506134528 56 155 0.0 3.5 0.00 0.13 0.09 82 1006.9
20260506133024 55 78 0.9 9.6 0.00 0.13 0.09 84 1006.9
20260506131525 54 115 0.0 1.7 0.00 0.13 0.09 86 1006.9
20260506130021 54 76 0.0 1.7 0.00 0.13 0.09 88 1007.0
20260506124518 53 126 0.0 2.6 0.00 0.13 0.09 90 1007.1
20260506123017 53 158 0.0 0.9 0.00 0.13 0.09 91 1007.0
20260506121516 52 225 0.0 0.0 0.00 0.13 0.09 90 1007.1
20260506120014 51 225 0.0 0.0 0.00 0.13 0.09 91 1007.2
20260506114513 52 225 0.0 0.9 0.00 0.13 0.09 91 1006.8
20260506113014 51 225 0.0 0.0 0.00 0.13 0.09 91 1006.7
20260506111512 51 225 0.0 0.0 0.01 0.13 0.09 91 1006.5
20260506110012 51 225 0.0 2.6 0.02 0.13 0.09 92 1006.4
20260506104512 51 201 0.0 0.9 0.03 0.13 0.09 92 1006.2
20260506103023 50 236 0.0 0.9 0.05 0.13 0.09 93 1006.1
20260506101511 50 174 0.0 1.7 0.06 0.12 0.09 93 1005.8
20260506100010 51 184 0.0 5.2 0.08 0.11 0.08 93 1005.7
20260506094525 51 146 0.9 4.3 0.06 0.09 0.06 93 1005.8
20260506093008 51 192 0.0 3.5 0.05 0.08 0.05 92 1005.6
20260506091508 51 245 0.0 4.3 0.02 0.06 0.02 91 1005.2
20260506090007 51 254 0.0 5.2 0.00 0.03 0.00 91 1005.0
20260506084507 52 178 0.0 6.1 0.00 0.03 0.00 90 1004.9
20260506083006 53 214 0.0 4.3 0.00 0.03 0.00 91 1004.7
20260506081506 53 234 0.0 1.7 0.00 0.03 0.00 92 1004.3
20260506073002 51 185 0.0 1.7 0.00 0.03 0.00 93 1004.3
20260506071602 51 184 0.0 1.7 0.00 0.03 0.00 93 1004.1
20260506070117 51 207 0.0 0.9 0.00 0.03 0.00 93 1003.8
20260506061603 50 233 0.0 2.6 0.00 0.03 0.00 93 1003.7
20260506044554 50 185 0.0 0.0 0.00 0.03 0.00 92 1003.9
20260506043045 50 185 0.0 0.0 0.00 0.03 0.00 91 1004.0
20260506041549 50 185 0.0 0.0 0.00 0.03 0.00 91 1004.2
20260506040044 50 185 0.0 0.0 0.00 0.03 0.00 91 1004.5
20260506034540 50 183 0.0 0.0 0.00 0.03 0.00 91 1004.2
20260506033037 50 183 0.0 0.0 0.00 0.03 0.00 90 1004.6
20260506031551 50 183 0.0 0.0 0.00 0.03 0.00 91 1004.9
20260506030033 51 183 0.0 0.0 0.00 0.03 0.00 91 1005.1
20260506024535 50 183 0.0 0.0 0.00 0.03 0.00 91 1005.5
20260506023030 51 183 0.0 0.0 0.00 0.03 0.00 91 1005.6
20260506021527 51 183 0.0 0.0 0.00 0.03 0.00 92 1005.8
20260506020025 52 183 0.0 0.0 0.00 0.03 0.00 92 1006.0
20260506014528 52 183 0.0 0.0 0.00 0.03 0.00 92 1006.5
20260506013024 52 183 0.0 0.0 0.00 0.03 0.00 92 1006.6
20260506011525 52 183 0.0 0.0 0.00 0.03 0.00 92 1006.7
20260506010022 52 183 0.0 0.0 0.00 0.03 0.00 93 1006.7
20260506004519 52 182 0.0 0.0 0.00 0.03 0.00 93 1006.7
20260506003019 52 182 0.0 1.7 0.00 0.03 0.00 93 1007.1
20260506001516 52 198 0.0 0.0 0.00 0.03 0.00 93 1007.1
20260506000013 52 198 0.0 0.9 0.00 0.03 0.00 93 1007.8
20260505234526 52 186 0.0 1.7 0.00 0.03 0.00 93 1007.9
20260505233016 52 185 0.0 0.9 0.00 0.03 0.00 93 1008.0
20260505231513 52 185 0.0 0.9 0.00 0.03 0.00 93 1008.4
20260505230012 53 182 0.0 1.7 0.00 0.03 0.00 93 1008.3
20260505224508 53 226 0.0 2.6 0.00 0.03 0.00 93 1007.9
20260505223009 53 186 0.0 0.9 0.00 0.03 0.00 92 1008.2
20260505221504 53 183 0.0 1.7 0.00 0.03 0.00 92 1008.3
20260505220007 54 211 0.0 1.7 0.00 0.03 0.03 91 1008.5
20260505214502 54 212 0.0 1.7 0.00 0.03 0.03 91 1008.3
20260505213000 54 215 0.0 0.9 0.00 0.03 0.03 90 1008.4
20260505211614 54 215 0.0 1.7 0.00 0.03 0.03 90 1008.2
20260505204602 55 213 0.0 0.0 0.00 0.03 0.03 89 1008.1